Flag for Spain Weather past 2 weeks in Almería, Spain

Now
50 °F

Cool.


Feels Like: 47 °F
Forecast: 45 / 67 °F
Wind: 8 mph from Northwest

Location: Almeria / Aeropuerto

Current Time: Dec 27, 2014 at 9:49:43 AM

Latest Report: Dec 27, 2014 at 9:00 AM


Visibility: N/A

Pressure: 30.32 "Hg

Humidity: 69%

Dew point: 40 °F

Location of AlmeríaLocation

Historic Weather in Almería — Graph

°F

Almería temperature yesterday

Maximum temperature yesterday: 63 °F (at 3:00 PM)
Minimum temperature yesterday: 50 °F (at 8:00 AM)
Average temperature yesterday: 56 °F

Past Weeks' High & Low Weather Summary

 TemperatureHumidityPressure
High68 °F (Dec 23, 3:00 PM)94% (Dec 14, 12:00 PM)30.50 "Hg (Dec 14, 12:00 PM)
Low48 °F (Dec 25, 7:00 AM)42% (Dec 17, 8:00 AM)29.87 "Hg (Dec 14, 4:00 PM)
Average57 °F73%30.26 "Hg
* Reported Dec 12 8:00 AM — Dec 27 8:00 AM, Almería, Weather by CustomWeather, © 2014

Note: Actual official high and low records may vary slightly from our data, if they occured in-between our weather recording intervals... More about our weather records

Advertising

Almería weather history for previous 24 hours

 ConditionsComfort  
Time TempWeatherWind HumidityBarometerVisibility
8:00 AM
Dec 27
49 °FCool.10 mph72%30.31 "HgN/A
7:00 AM49 °FPassing clouds.9 mph72%30.32 "Hg16 mi
6:00 AM49 °FCool.12 mph75%30.34 "HgN/A
5:00 AM50 °FCool.12 mph74%30.35 "HgN/A
4:00 AM50 °FCool.12 mph78%30.36 "HgN/A
3:00 AM51 °FCool.10 mph78%30.37 "HgN/A
2:00 AM51 °FCool.10 mph80%30.37 "HgN/A
1:00 AM52 °FCool.10 mph82%30.39 "HgN/A
12:00 AM52 °FCool.10 mph84%30.40 "HgN/A
11:00 PM
Dec 26
53 °FCool.7 mph86%30.40 "HgN/A
10:00 PM53 °FPassing clouds.1 mph90%30.40 "Hg9 mi
9:00 PM56 °FCool.1 mph88%30.40 "HgN/A
8:00 PM57 °FCool.3 mph84%30.40 "HgN/A
7:00 PM58 °FPassing clouds.7 mph79%30.40 "Hg9 mi
6:00 PM60 °FCool.10 mph78%30.40 "HgN/A
5:00 PM62 °FCool.9 mph74%30.40 "HgN/A
4:00 PM63 °FPassing clouds.9 mph72%30.39 "Hg12 mi
3:00 PM63 °FMild.10 mph66%30.39 "HgN/A
2:00 PM63 °FMild.7 mph70%30.40 "HgN/A
1:00 PM62 °FPassing clouds.8 mph70%30.42 "Hg16 mi
12:00 PM62 °FRefreshingly cool.No wind58%30.45 "HgN/A
11:00 AM58 °FRefreshingly cool.9 mph58%30.45 "HgN/A
10:00 AM53 °FPassing clouds.13 mph67%30.44 "Hg16 mi
9:00 AM50 °FCool.14 mph72%30.43 "HgN/A
Weather by CustomWeather, © 2014

See weather overviewHow to use our weather pages